Flag for Germany Weather past 2 weeks in Memmingen, Bavaria, Germany

Now
66 °F

Partly sunny.


Feels Like: 66 °F
Forecast: 46 / 67 °F
Wind: 3 mph from Northwest

Location: Kempten

Current Time: Aug 22, 2014 at 6:11:05 PM

Latest Report: Aug 22, 2014 at 5:00 PM


Visibility: 44 mi

Pressure: 29.93 "Hg

Humidity: 47%

Dew point: 45 °F

Location of MemmingenLocation

Historic Weather in Memmingen — Graph

°F

Memmingen temperature yesterday

Maximum temperature yesterday: 63 °F (at 4:00 PM)
Minimum temperature yesterday: 50 °F (at 4:00 AM)
Average temperature yesterday: 56 °F

Past Weeks' High & Low Weather Summary

 TemperatureHumidityPressure
High81 °F (Aug 10, 6:00 PM)100% (Aug 19, 6:00 AM)30.21 "Hg (Aug 19, 6:00 AM)
Low46 °F (Aug 17, 7:00 AM)43% (Aug 22, 3:00 PM)29.66 "Hg (Aug 13, 2:00 PM)
Average59 °F79%29.96 "Hg
* Reported Aug 7 5:00 PM — Aug 22 5:00 PM, Memmingen, Weather by CustomWeather, © 2014

Note: Actual official high and low records may vary slightly from our data, if they occured in-between our weather recording intervals... More about our weather records

Advertising

Memmingen weather history for previous 24 hours

 ConditionsComfort  
Time TempWeatherWind HumidityBarometerVisibility
5:00 PM
Aug 22
66 °FPartly sunny.3 mph47%29.93 "Hg43 mi
4:00 PM67 °FScattered clouds.5 mph44%29.93 "Hg16 mi
3:00 PM65 °FPassing clouds.5 mph43%29.95 "Hg19 mi
2:00 PM64 °FOvercast.3 mph46%29.97 "Hg40 mi
1:00 PM62 °FOvercast.3 mph45%29.99 "Hg28 mi
12:00 PM61 °FOvercast.3 mph53%30.00 "Hg31 mi
11:00 AM59 °FOvercast.3 mph61%30.01 "Hg31 mi
10:00 AM58 °FOvercast.2 mph74%30.01 "Hg25 mi
9:00 AM55 °FOvercast.1 mph75%30.02 "Hg25 mi
8:00 AM54 °FOvercast.1 mph83%30.01 "Hg28 mi
7:00 AM52 °FOvercast.1 mph85%30.01 "Hg25 mi
6:00 AM52 °FOvercast.2 mph86%30.01 "Hg28 mi
4:00 AM53 °FOvercast.1 mph84%30.02 "Hg28 mi
3:00 AM53 °FOvercast.2 mph89%30.02 "Hg25 mi
2:00 AM53 °FOvercast.1 mph89%30.03 "Hg25 mi
1:00 AM53 °FOvercast.1 mph90%30.03 "Hg22 mi
12:00 AM54 °FOvercast.2 mph88%30.03 "Hg25 mi
11:00 PM
Aug 21
54 °FOvercast.1 mph88%30.03 "Hg22 mi
10:00 PM55 °FOvercast.2 mph88%30.03 "Hg25 mi
9:00 PM56 °FOvercast.1 mph84%30.01 "Hg28 mi
8:00 PM59 °FOvercast.2 mph71%30.00 "Hg34 mi
7:00 PM62 °FOvercast.1 mph49%29.98 "Hg43 mi
6:00 PM63 °FOvercast.2 mph47%29.98 "Hg37 mi
Weather by CustomWeather, © 2014

See weather overviewHow to use our weather pages